Fort Loudoun Observed Data For Previous 48 Hours

Caption
Day and Hour Reservoir Elevation (behind dam)* Tailwater Elevation (below dam)* Average Hourly Discharge*
1/17/2018 2 AM EST 808.57 739.11 22,977
1/17/2018 3 AM EST 808.57 739.11 23,032
1/17/2018 4 AM EST 808.58 739.08 22,978
1/17/2018 5 AM EST 808.60 739.09 22,961
1/17/2018 6 AM EST 808.61 739.09 22,901
1/17/2018 7 AM EST 808.61 739.11 22,967
1/17/2018 8 AM EST 808.62 739.19 22,877
1/17/2018 9 AM EST 808.62 739.28 23,004
1/17/2018 10 AM EST 808.63 739.24 22,911
1/17/2018 11 AM EST 808.64 739.20 22,880
1/17/2018 12 PM EST 808.68 739.10 22,890
1/17/2018 1 PM EST 808.71 739.09 22,907
1/17/2018 2 PM EST 808.74 739.06 22,822
1/17/2018 3 PM EST 808.76 739.06 22,785
1/17/2018 4 PM EST 808.77 739.12 22,859
1/17/2018 5 PM EST 808.79 739.12 22,925
1/17/2018 6 PM EST 808.81 739.12 22,866
1/17/2018 7 PM EST 808.82 739.17 22,833
1/17/2018 8 PM EST 808.82 739.22 22,786
1/17/2018 9 PM EST 808.82 739.20 22,854
1/17/2018 10 PM EST 808.82 739.21 22,838
1/17/2018 11 PM EST 808.81 739.19 22,906
1/18/2018 12 AM EST 808.82 739.12 22,776
1/18/2018 1 AM EST 808.84 739.08 22,849
1/18/2018 2 AM EST 808.85 739.04 22,819
1/18/2018 3 AM EST 808.87 739.08 22,822
1/18/2018 4 AM EST 808.89 739.09 22,800
1/18/2018 5 AM EST 808.91 739.11 22,850
1/18/2018 6 AM EST 808.93 739.10 22,767
1/18/2018 7 AM EST 808.93 739.13 22,799
1/18/2018 8 AM EST 808.94 739.12 22,817
1/18/2018 9 AM EST 808.94 739.14 22,859
1/18/2018 10 AM EST 808.93 739.09 22,729
1/18/2018 11 AM EST 808.92 739.04 22,728
1/18/2018 12 PM EST 808.91 739.07 22,629
1/18/2018 1 PM EST 808.92 739.01 22,741
1/18/2018 2 PM EST 808.95 739.01 22,691
1/18/2018 3 PM EST 808.96 738.99 22,636
1/18/2018 4 PM EST 808.97 739.06 22,706
1/18/2018 5 PM EST 808.99 739.09 22,828
1/18/2018 6 PM EST 808.99 739.08 22,745
1/18/2018 7 PM EST 809.01 739.11 22,768
1/18/2018 8 PM EST 809.01 739.15 22,843
1/18/2018 9 PM EST 809.03 739.16 22,798
1/18/2018 10 PM EST 809.05 739.17 22,861
1/18/2018 11 PM EST 809.07 739.13 22,653
1/19/2018 12 AM EST 809.01 739.13 22,734

Elevations are in feet above sea level. Discharges are in cubic feet per second and are reported at the end of the hour.